Location: Birgitz
(47.2333°N, 11.2833°E)
Time: 00:16:13
(UTC+00:00)

Daily predictions for brighter satellites

Satellite Brightness Start Highest point End
(mag) Time Altitude Azimuth Time Altitude Azimuth Time Altitude Azimuth
Cosmos 2369 Rocket 4.0 02:52:23 26° E 02:52:23 26° E 02:56:32 10° NE
USA 215 4.1 02:54:17 10° E 02:59:30 42° NE 02:59:30 42° NE
Cosmos 1943 Rocket 3.9 03:12:50 25° NNE 03:12:50 25° NNE 03:15:07 10° NNE
Tsikada Rocket 4.2 03:31:33 63° NE 03:31:33 63° NE 03:36:52 10° NNE
MOS 1-B Rocket 4.3 03:35:01 10° SSE 03:41:02 60° ENE 03:43:22 35° N
CENTAUR R/B 2.8 03:44:24 56° N 03:44:24 56° N 03:50:39 10° NE
Cosmos 2278 Rocket 4.5 03:51:48 12° N 03:51:48 12° N 03:52:15 10° N
ATLAS 5 CENTAUR R/B 4.3 03:55:10 10° SE 03:57:06 14° ESE 03:59:07 10° E
NOSS 3-2 (A) 4.1 04:04:15 40° NNW 04:04:15 40° NNW 04:09:51 10° NE
Cosmos 1151 Rocket 3.5 04:05:31 55° SSE 04:05:31 55° SSE 04:09:00 10° SSE
Cosmos 1486 Rocket 4.0 04:03:41 59° S 04:04:44 83° ESE 04:10:02 10° NNE
SL-8 R/B 3.9 04:07:03 64° SSE 04:07:03 64° SSE 04:11:18 10° ESE
Meteor 2-6 Rocket 4.3 04:05:33 25° N 04:08:45 71° ENE 04:14:07 10° SSE
DNEPR-1 R/B 3.8 04:11:35 79° WSW 04:11:39 79° SW 04:17:20 10° SSE
NOSS 3-2 (C) 3.5 04:12:49 54° NW 04:12:54 54° NW 04:19:25 10° NE
Cosmos 1833 4.1 04:15:45 44° NNW 04:17:39 88° ENE 04:23:24 10° SSE
Okean 3 Rocket 3.9 04:13:10 10° S 04:17:40 68° E 04:22:12 10° NNE
Cosmos 1766 Rocket 3.5 04:16:26 10° S 04:20:45 82° E 04:25:06 10° N
BREEZE-M DEB (TANK) 3.7 04:21:03 42° SW 04:21:52 45° SSW 04:33:57 10° SE
SL-27 R/B 3.7 04:21:23 36° NE 04:22:00 39° ENE 04:25:20 10° SE
Envisat 3.1 04:18:44 10° NNE 04:23:50 78° ESE 04:28:55 10° S
Cosmos 968 Rocket 4.4 04:27:18 32° NNW 04:27:18 32° NNW 04:30:32 10° N
Cosmos 1328 Rocket 3.4 04:25:33 50° N 04:26:40 89° ENE 04:31:01 10° S
Cosmos 2263 4.1 04:24:35 20° SSW 04:28:42 80° WNW 04:34:30 10° NNE
Cosmos 2297 Rocket 4.3 04:26:18 10° N 04:30:29 21° NE 04:34:39 10° E
Cosmos 2098 Rocket 3.1 04:32:19 38° SW 04:33:53 64° WNW 04:39:10 10° N
Cosmos 2369 Rocket 2.2 04:34:16 43° WSW 04:35:38 53° WNW 04:41:09 10° NNE
Meteor 1-10 Rocket 4.1 04:30:38 10° N 04:36:13 87° E 04:41:46 10° S
Cosmos 2344 4.0 04:34:44 33° WNW 04:36:48 39° NNW 04:44:30 10° NE
Cosmos 2142 Rocket 4.4 04:31:29 10° NNW 04:37:48 68° W 04:44:07 10° S
SL-19 R/B 4.3 04:33:35 10° S 04:39:00 53° WSW 04:41:27 31° NW
FALCON 9 DEB 4.4 04:40:34 30° NNE 04:40:34 30° NNE 04:43:04 10° ENE
USA 238 DEB 4.1 04:39:34 35° WNW 04:41:12 40° NW 04:47:44 10° NE
USA 238 4.1 04:39:38 35° WNW 04:41:17 41° NW 04:47:51 10° NE
Cosmos 1656 Rocket 3.5 04:37:55 23° SW 04:41:20 64° WNW 04:46:47 10° NNE
COSMO-SKYMED 1 2.5 04:37:16 10° S 04:41:34 64° WSW 04:42:51 42° NW
Cosmos 2279 Rocket 3.9 04:36:02 10° NNW 04:42:09 66° W 04:48:16 10° S
USA 215 3.2 04:36:29 10° ESE 04:43:02 85° NE 04:46:50 28° NW
H-2A R/B 3.9 04:40:16 10° N 04:46:54 15° SSW 04:47:39 10° SSW
Meteor 1-31 Rocket 2.6 04:40:37 10° NNE 04:44:32 85° WNW 04:48:27 10° SSW
BREEZE-M DEB (TANK) 4.3 04:32:26 10° SW 04:46:07 53° SSE 04:49:55 10° E
IRAS Rocket 4.4 04:46:43 10° SSE 04:52:11 71° ENE 04:57:40 10° NNW
CBERS 1 LM4 rocket 4.3 04:47:49 10° NNE 04:52:42 75° WNW 04:57:44 10° SSW
Nadezhda 4 Rocket 4.2 04:46:46 10° S 04:52:52 71° E 04:59:07 10° NNE
CZ-4B R/B 4.2 04:50:44 10° ESE 04:52:57 17° ENE 04:55:09 10° NNE
CZ-2C R/B 2.7 04:47:49 10° S 04:53:10 54° W 04:57:37 15° NNW
Cosmos 1408 Rocket 3.5 04:48:56 10° S 04:53:13 85° E 04:57:33 10° N
CZ-4B R/B 4.0 04:49:06 10° N 04:53:33 68° WNW 04:57:59 10° SSW
Cosmos 1943 Rocket 3.4 04:54:24 22° NW 04:54:24 22° NW 04:58:16 10° N
Cosmos 1354 Rocket 3.9 04:54:26 10° SSW 04:59:42 70° WNW 05:05:01 10° NNE
Cosmos 1743 Rocket 4.2 04:58:44 10° S 05:03:01 58° E 05:07:19 10° NNE
Meteor 2-15 4.3 04:57:27 10° NNW 05:03:28 67° W 05:09:27 10° S
Cosmos 2228 Rocket 4.2 04:59:42 10° N 05:04:03 46° ENE 05:08:24 10° SSE
Cosmos 1862 4.3 05:07:20 26° NW 05:07:20 26° NW 05:09:43 10° N
Cosmos 2227 Rocket 4.0 05:01:53 10° N 05:06:34 25° NE 05:11:11 10° ESE
Landsat 5 4.0 05:05:12 10° S 05:09:30 44° W 05:12:32 18° NNW
Cosmos 1515 Rocket 3.5 05:06:34 12° NNW 05:10:37 58° W 05:14:52 10° S
SJ 16-02 1.4 05:08:17 10° SSW 05:12:39 83° ESE 05:17:03 10° NNE
SJ-7 4.4 05:08:34 10° NNE 05:12:47 88° WNW 05:16:56 10° SSW
ADEOS 3.5 05:07:35 10° NNE 05:12:51 80° WNW 05:18:03 10° SSW
BREEZE-M DEB (TANK) 3.5 05:16:52 26° WNW 05:18:46 68° N 05:27:56 10° E
Meteor 2-19 Rocket 4.3 05:13:16 10° SSW 05:19:17 69° WNW 05:25:21 10° N
Cosmos 1602 4.4 05:18:49 10° S 05:22:33 57° E 05:26:19 10° NNE
NOAA 11 4.1 05:18:57 10° N 05:24:25 72° WNW 05:29:52 10° SSW
CZ-4C R/B 3.6 05:22:52 10° SSW 05:25:37 28° W 05:26:28 24° WNW
Cosmos 1538 Rocket 4.0 05:21:15 10° NNW 05:26:32 89° WSW 05:31:43 10° SSE
COSMOS 2487 2.2 05:23:41 13° NNW 05:26:35 90° ENE 05:29:56 10° SSE
Cosmos 1500 Rocket 3.5 05:26:19 10° SSW 05:30:47 69° WNW 05:35:15 10° N
CZ-2C R/B 2.9 05:27:07 10° N 05:32:00 75° WNW 05:37:06 10° SSW
SMAP 3.5 05:30:11 10° NNE 05:34:51 67° ESE 05:39:28 10° S
CENTAUR R/B 3.9 05:31:36 16° WNW 05:35:42 27° NNW 05:42:03 10° NE
Sich 1 3.5 05:32:41 10° S 05:36:55 65° E 05:41:09 10° NNE
FALCON 9 DEB 4.1 05:37:32 17° NW 05:39:09 27° N 05:41:42 10° ENE
CZ-4B R/B 2.6 05:36:24 10° N 05:39:55 58° WNW 05:43:27 10° SSW
H-2A R/B 3.5 05:35:39 10° NNE 05:40:16 39° E 05:44:53 10° SSE
ATLAS 5 CENTAUR R/B 1.3 05:37:04 10° SW 05:40:55 67° NW 05:45:19 10° NE
Meteor 1-27 Rocket 4.1 05:36:12 10° NNW 05:41:34 45° W 05:47:01 10° SSW
Cosmos 2219 4.3 05:36:23 10° NNW 05:41:44 41° NE 05:47:05 10° SE
FALCON 9 DEB 3.9 05:40:01 16° NW 05:41:46 30° NNE 05:44:21 10° ENE
FALCON 9 DEB 3.8 05:40:11 16° NW 05:41:58 31° NNE 05:44:34 10° E
Cosmos 1707 Rocket 4.3 05:38:08 10° N 05:42:31 55° ENE 05:46:53 10° SSE
Cosmos 1805 Rocket 3.5 05:38:32 10° S 05:42:56 86° W 05:47:19 10° N
H-2A R/B 2.1 05:39:14 10° S 05:43:28 61° WSW 05:47:50 10° NNW
Cosmos 1500 3.6 05:40:58 10° S 05:44:44 67° E 05:48:31 10° NNE
Meteor PRIRODA 3.9 05:41:17 10° N 05:44:45 44° WNW 05:48:12 10° SW
Cosmos 1777 Rocket 4.2 05:42:12 10° SW 05:47:16 50° WNW 05:52:24 10° NNE
Cosmos 1680 Rocket 4.4 05:42:07 10° NNW 05:47:17 49° ENE 05:52:23 10° SE
USA 32 4.1 05:43:43 10° NNW 05:48:54 60° W 05:54:02 10° S
Lacrosse 4 Rocket 3.4 05:48:07 10° NNW 05:51:53 26° NE 05:55:39 10° ESE
Cosmos 1515 4.1 05:50:16 10° NNW 05:53:52 43° W 05:57:29 10° SSW
Cosmos 1340 Rocket 3.3 05:51:41 10° SW 05:55:22 36° WNW 05:59:07 10° N
SL-27 R/B 4.2 05:54:53 12° WNW 05:56:41 16° W 05:58:50 10° SW
Okean O Rocket 3.8 05:54:11 10° NNE 05:58:08 31° E 06:02:02 10° SSE
Cosmos 2026 Rocket 4.0 05:52:25 10° SSW 05:58:46 78° W 06:05:04 10° N
Cosmos 923 Rocket 4.2 05:56:24 10° NNW 06:01:47 83° ENE 06:07:08 10° SSE
Envisat 4.4 05:59:01 10° NNW 06:02:16 17° WNW 06:05:29 10° W
Cosmos 2195 Rocket 4.5 05:56:46 10° SSW 06:02:49 62° WNW 06:08:53 10° N
NOAA 6 4.0 05:58:27 10° NNE 06:03:35 77° WNW 06:08:41 10° SSW
ATLAS 3B R/B 2.6 05:57:57 10° SW 06:04:30 71° NW 06:11:25 10° NE
FALCON 9 DEB 3.8 06:03:19 10° NW 06:05:58 31° NNE 06:08:36 10° E
Cosmos 1553 Rocket 4.1 06:02:32 10° N 06:08:39 85° E 06:14:45 10° S
Meteor 1-25 Rocket 4.3 06:04:50 10° SSW 06:10:20 55° WNW 06:15:49 10° N
PSLV R/B 4.0 06:09:36 10° S 06:13:38 63° WSW 06:17:44 10° NNW
Cosmos 1939 Rocket 3.4 06:10:04 10° N 06:13:40 35° WNW 06:17:13 10° SW
Cosmos 1666 2.8 06:10:10 10° S 06:13:56 80° E 06:17:43 10° NNE
Cosmos 2297 Rocket 2.3 06:09:37 10° NNW 06:15:19 88° WSW 06:21:00 10° SSE
EO 1 Delta rocket 4.4 06:11:27 10° N 06:17:50 60° WNW 06:22:56 10° SSW
